| time (UTC) | temp F | wind direction | speed MPH | gust MPH | rain 1hr in | rain 24hr in | rain mn in | humidity % | barometer mb |
| 20260510152242 | 79 | 150 | 2.0 | 5.0 | 0.00 | 0.00 | 0.00 | 66 | 1014.4 |
| 20260510151738 | 78 | 161 | 3.0 | 5.0 | 0.00 | 0.00 | 0.00 | 66 | 1014.5 |
| 20260510151237 | 78 | 156 | 4.0 | 10.0 | 0.00 | 0.00 | 0.00 | 65 | 1014.5 |
| 20260510150727 | 78 | 177 | 1.0 | 3.0 | 0.00 | 0.00 | 0.00 | 67 | 1014.8 |
| 20260510150222 | 77 | 97 | 2.0 | 3.0 | 0.00 | 0.00 | 0.00 | 67 | 1014.9 |
| 20260510145719 | 77 | 102 | 3.0 | 8.0 | 0.00 | 0.00 | 0.00 | 66 | 1014.8 |
| 20260510145215 | 77 | 174 | 2.0 | 5.0 | 0.00 | 0.00 | 0.00 | 66 | 1014.9 |
| 20260510144711 | 76 | 180 | 3.0 | 7.0 | 0.00 | 0.00 | 0.00 | 68 | 1015.0 |
| 20260510144209 | 76 | 132 | 2.0 | 6.0 | 0.00 | 0.00 | 0.00 | 66 | 1015.1 |
| 20260510143703 | 76 | 146 | 2.0 | 3.0 | 0.00 | 0.00 | 0.00 | 67 | 1015.2 |
| 20260510143200 | 76 | 175 | 4.0 | 8.0 | 0.00 | 0.00 | 0.00 | 66 | 1015.4 |
| 20260510142656 | 75 | 186 | 3.0 | 6.0 | 0.00 | 0.00 | 0.00 | 66 | 1015.5 |
| 20260510142153 | 76 | 155 | 1.0 | 3.0 | 0.00 | 0.00 | 0.00 | 67 | 1015.5 |
| 20260510141650 | 75 | 107 | 3.0 | 6.0 | 0.00 | 0.00 | 0.00 | 67 | 1015.5 |
| 20260510141149 | 75 | 182 | 1.0 | 2.0 | 0.00 | 0.00 | 0.00 | 69 | 1015.8 |
| 20260510140644 | 74 | 157 | 3.0 | 3.0 | 0.00 | 0.00 | 0.00 | 68 | 1015.9 |
| 20260510140143 | 73 | 129 | 1.0 | 6.0 | 0.00 | 0.00 | 0.00 | 72 | 1015.8 |
| 20260510135639 | 73 | 171 | 2.0 | 2.0 | 0.00 | 0.00 | 0.00 | 72 | 1016.0 |
| 20260510135135 | 73 | 58 | 1.0 | 3.0 | 0.00 | 0.00 | 0.00 | 73 | 1015.8 |
| 20260510134632 | 72 | 132 | 2.0 | 3.0 | 0.00 | 0.00 | 0.00 | 71 | 1016.2 |
| 20260510134129 | 72 | 174 | 1.0 | 5.0 | 0.00 | 0.00 | 0.00 | 71 | 1016.2 |
| 20260510133626 | 72 | 152 | 0.0 | 2.0 | 0.00 | 0.00 | 0.00 | 73 | 1016.2 |
| 20260510133121 | 72 | 141 | 1.0 | 1.0 | 0.00 | 0.00 | 0.00 | 72 | 1016.1 |
| 20260510132618 | 72 | 141 | 1.0 | 2.0 | 0.00 | 0.00 | 0.00 | 73 | 1016.0 |
| 20260510132115 | 72 | 125 | 0.0 | 2.0 | 0.00 | 0.00 | 0.00 | 73 | 1015.8 |
| 20260510131613 | 72 | 122 | 1.0 | 2.0 | 0.00 | 0.00 | 0.00 | 73 | 1015.7 |
| 20260510131110 | 72 | 89 | 1.0 | 2.0 | 0.00 | 0.00 | 0.00 | 74 | 1015.4 |
| 20260510130606 | 71 | 132 | 1.0 | 3.0 | 0.00 | 0.00 | 0.00 | 74 | 1015.4 |
| 20260510130104 | 71 | 137 | 1.0 | 1.0 | 0.00 | 0.00 | 0.00 | 74 | 1015.3 |
| 20260510125600 | 71 | 154 | 1.0 | 2.0 | 0.00 | 0.00 | 0.00 | 74 | 1015.7 |
| 20260510125056 | 71 | 109 | 0.0 | 3.0 | 0.00 | 0.00 | 0.00 | 74 | 1015.5 |
| 20260510124553 | 71 | 144 | 2.0 | 2.0 | 0.00 | 0.00 | 0.00 | 74 | 1015.3 |
| 20260510124050 | 71 | 93 | 0.0 | 1.0 | 0.00 | 0.00 | 0.00 | 75 | 1015.3 |
| 20260510123545 | 71 | 137 | 2.0 | 3.0 | 0.00 | 0.00 | 0.00 | 74 | 1015.2 |
| 20260510123042 | 71 | 121 | 0.0 | 1.0 | 0.00 | 0.00 | 0.00 | 75 | 1015.2 |
| 20260510122537 | 71 | 155 | 1.0 | 2.0 | 0.00 | 0.00 | 0.00 | 74 | 1015.0 |
| 20260510122033 | 71 | 134 | 0.0 | 2.0 | 0.00 | 0.00 | 0.00 | 75 | 1015.0 |
| 20260510121531 | 71 | 182 | 1.0 | 2.0 | 0.00 | 0.00 | 0.00 | 75 | 1014.8 |
| 20260510121028 | 71 | 132 | 1.0 | 2.0 | 0.00 | 0.00 | 0.00 | 77 | 1014.7 |
| 20260510120526 | 71 | 149 | 1.0 | 1.0 | 0.00 | 0.00 | 0.00 | 76 | 1014.8 |
| 20260510120021 | 71 | 24 | 0.0 | 1.0 | 0.00 | 0.00 | 0.00 | 77 | 1014.9 |
| 20260510115518 | 71 | 112 | 2.0 | 3.0 | 0.00 | 0.00 | 0.00 | 77 | 1014.6 |
| 20260510115015 | 71 | 117 | 0.0 | 6.0 | 0.00 | 0.00 | 0.00 | 76 | 1014.8 |
| 20260510114511 | 71 | 99 | 1.0 | 5.0 | 0.00 | 0.00 | 0.00 | 77 | 1014.8 |
| 20260510114007 | 71 | 136 | 1.0 | 2.0 | 0.00 | 0.00 | 0.00 | 76 | 1014.6 |
| 20260510113502 | 71 | 78 | 2.0 | 3.0 | 0.00 | 0.00 | 0.00 | 76 | 1014.5 |
| 20260510113000 | 71 | 111 | 0.0 | 3.0 | 0.00 | 0.00 | 0.00 | 77 | 1014.5 |
| 20260510112457 | 72 | 54 | 1.0 | 2.0 | 0.00 | 0.00 | 0.00 | 76 | 1014.7 |
| 20260510111953 | 72 | 118 | 1.0 | 3.0 | 0.00 | 0.00 | 0.00 | 75 | 1014.5 |
| 20260510111449 | 72 | 63 | 2.0 | 5.0 | 0.00 | 0.00 | 0.00 | 76 | 1014.8 |
| 20260510110945 | 72 | 246 | 3.0 | 5.0 | 0.00 | 0.00 | 0.00 | 76 | 1014.3 |
| 20260510110442 | 72 | 182 | 0.0 | 2.0 | 0.00 | 0.00 | 0.00 | 77 | 1014.4 |
| 20260510105938 | 73 | 113 | 8.0 | 11.0 | 0.00 | 0.00 | 0.00 | 77 | 1014.2 |
| 20260510105433 | 73 | 111 | 1.0 | 2.0 | 0.00 | 0.00 | 0.00 | 77 | 1014.2 |
| 20260510104929 | 73 | 128 | 1.0 | 3.0 | 0.00 | 0.00 | 0.00 | 77 | 1014.2 |
| 20260510104425 | 73 | 160 | 1.0 | 7.0 | 0.00 | 0.00 | 0.00 | 76 | 1014.1 |
| 20260510103921 | 73 | 155 | 3.0 | 7.0 | 0.00 | 0.00 | 0.00 | 77 | 1014.1 |
| 20260510103414 | 73 | 112 | 3.0 | 7.0 | 0.00 | 0.00 | 0.00 | 77 | 1014.1 |
| 20260510102914 | 73 | 99 | 3.0 | 9.0 | 0.00 | 0.00 | 0.00 | 76 | 1014.1 |
| 20260510102410 | 73 | 2 | 3.0 | 7.0 | 0.00 | 0.00 | 0.00 | 77 | 1014.1 |
| 20260510101902 | 73 | 124 | 2.0 | 9.0 | 0.00 | 0.00 | 0.00 | 77 | 1014.1 |
| 20260510101400 | 75 | 42 | 3.0 | 10.0 | 0.00 | 0.00 | 0.00 | 79 | 1014.1 |
| 20260510100856 | 75 | 126 | 1.0 | 2.0 | 0.00 | 0.00 | 0.00 | 84 | 1013.9 |
| 20260510100353 | 75 | 97 | 0.0 | 3.0 | 0.00 | 0.00 | 0.00 | 84 | 1014.0 |
| 20260510095849 | 75 | 115 | 0.0 | 3.0 | 0.00 | 0.00 | 0.00 | 84 | 1013.7 |
| 20260510095344 | 75 | 82 | 2.0 | 3.0 | 0.00 | 0.00 | 0.00 | 84 | 1013.7 |
| 20260510094844 | 74 | 297 | 2.0 | 3.0 | 0.00 | 0.00 | 0.00 | 85 | 1013.6 |
| 20260510094339 | 74 | 48 | 2.0 | 3.0 | 0.00 | 0.00 | 0.00 | 84 | 1013.5 |
| 20260510093836 | 74 | 66 | 1.0 | 5.0 | 0.00 | 0.00 | 0.00 | 84 | 1013.8 |
| 20260510093332 | 74 | 71 | 1.0 | 5.0 | 0.00 | 0.00 | 0.00 | 83 | 1013.5 |
| 20260510092828 | 74 | 36 | 3.0 | 3.0 | 0.00 | 0.00 | 0.00 | 83 | 1013.3 |
| 20260510092324 | 74 | 37 | 2.0 | 3.0 | 0.00 | 0.00 | 0.00 | 83 | 1013.0 |
| 20260510091820 | 74 | 43 | 3.0 | 6.0 | 0.00 | 0.00 | 0.00 | 83 | 1013.2 |
| 20260510091318 | 74 | 86 | 0.0 | 3.0 | 0.00 | 0.00 | 0.00 | 83 | 1012.9 |
| 20260510090814 | 74 | 65 | 1.0 | 2.0 | 0.00 | 0.00 | 0.00 | 83 | 1012.5 |
| 20260510090311 | 74 | 60 | 1.0 | 1.0 | 0.00 | 0.00 | 0.00 | 83 | 1012.5 |
| 20260510085807 | 75 | 108 | 0.0 | 2.0 | 0.00 | 0.00 | 0.00 | 82 | 1012.2 |
| 20260510085307 | 75 | 86 | 0.0 | 2.0 | 0.00 | 0.00 | 0.00 | 82 | 1012.5 |
| 20260510084802 | 74 | 89 | 0.0 | 2.0 | 0.00 | 0.00 | 0.00 | 83 | 1012.7 |
| 20260510084259 | 74 | 103 | 1.0 | 2.0 | 0.00 | 0.00 | 0.00 | 83 | 1012.5 |
| 20260510083756 | 74 | 76 | 2.0 | 3.0 | 0.00 | 0.00 | 0.00 | 83 | 1012.5 |
| 20260510083253 | 74 | 77 | 1.0 | 2.0 | 0.00 | 0.00 | 0.00 | 83 | 1012.3 |
| 20260510082749 | 74 | 104 | 1.0 | 1.0 | 0.00 | 0.00 | 0.00 | 83 | 1012.1 |
| 20260510082245 | 73 | 87 | 0.0 | 1.0 | 0.00 | 0.00 | 0.00 | 85 | 1011.7 |
| 20260510081744 | 74 | 122 | 0.0 | 1.0 | 0.00 | 0.00 | 0.00 | 84 | 1011.6 |
| 20260510081241 | 74 | 118 | 0.0 | 0.0 | 0.00 | 0.00 | 0.00 | 83 | 1011.5 |
| 20260510080736 | 74 | 125 | 0.0 | 0.0 | 0.00 | 0.00 | 0.00 | 82 | 1011.4 |
| 20260510080232 | 75 | 142 | 0.0 | 0.0 | 0.00 | 0.00 | 0.00 | 82 | 1011.2 |
| 20260510075729 | 75 | 96 | 0.0 | 1.0 | 0.00 | 0.00 | 0.00 | 81 | 1011.3 |
| 20260510075227 | 75 | 125 | 0.0 | 1.0 | 0.00 | 0.00 | 0.00 | 81 | 1011.2 |
| 20260510074724 | 75 | 117 | 1.0 | 2.0 | 0.00 | 0.00 | 0.00 | 80 | 1011.2 |
| 20260510074220 | 75 | 123 | 1.0 | 2.0 | 0.00 | 0.00 | 0.00 | 80 | 1011.1 |
| 20260510073716 | 75 | 105 | 0.0 | 0.0 | 0.00 | 0.00 | 0.00 | 80 | 1011.2 |
| 20260510073212 | 75 | 129 | 0.0 | 0.0 | 0.00 | 0.00 | 0.00 | 79 | 1011.1 |
| 20260510072708 | 75 | 132 | 1.0 | 1.0 | 0.00 | 0.00 | 0.00 | 78 | 1010.8 |
| 20260510072205 | 76 | 145 | 1.0 | 2.0 | 0.00 | 0.00 | 0.00 | 77 | 1011.1 |
| 20260510071701 | 76 | 140 | 0.0 | 2.0 | 0.00 | 0.00 | 0.00 | 77 | 1011.1 |
| 20260510071158 | 76 | 130 | 1.0 | 3.0 | 0.00 | 0.00 | 0.00 | 76 | 1011.3 |
| 20260510070656 | 76 | 62 | 3.0 | 3.0 | 0.00 | 0.00 | 0.00 | 77 | 1011.5 |
| 20260510070153 | 76 | 167 | 3.0 | 5.0 | 0.00 | 0.00 | 0.00 | 76 | 1011.7 |
| 20260510065648 | 76 | 202 | 3.0 | 3.0 | 0.00 | 0.00 | 0.00 | 76 | 1011.6 |
| 20260510065145 | 75 | 70 | 2.0 | 5.0 | 0.00 | 0.00 | 0.00 | 75 | 1011.8 |
| 20260510064642 | 75 | 62 | 3.0 | 5.0 | 0.00 | 0.00 | 0.00 | 74 | 1011.9 |
| 20260510064138 | 75 | 75 | 0.0 | 2.0 | 0.00 | 0.00 | 0.00 | 74 | 1011.9 |
| 20260510063635 | 75 | 71 | 2.0 | 3.0 | 0.00 | 0.00 | 0.00 | 74 | 1012.0 |
| 20260510063132 | 75 | 53 | 2.0 | 3.0 | 0.00 | 0.00 | 0.00 | 75 | 1011.9 |
| 20260510062628 | 75 | 27 | 2.0 | 5.0 | 0.00 | 0.00 | 0.00 | 74 | 1011.5 |
| 20260510062124 | 75 | 67 | 1.0 | 2.0 | 0.00 | 0.00 | 0.00 | 74 | 1011.1 |
| 20260510061620 | 75 | 110 | 0.0 | 1.0 | 0.00 | 0.00 | 0.00 | 74 | 1010.5 |
| 20260510061118 | 75 | 134 | 0.0 | 1.0 | 0.00 | 0.00 | 0.00 | 73 | 1010.2 |
| 20260510060613 | 75 | 122 | 0.0 | 2.0 | 0.00 | 0.00 | 0.00 | 73 | 1010.2 |
| 20260510060110 | 75 | 174 | 0.0 | 1.0 | 0.00 | 0.00 | 0.00 | 73 | 1010.0 |
| 20260510055606 | 75 | 124 | 0.0 | 1.0 | 0.00 | 0.00 | 0.00 | 72 | 1010.2 |
| 20260510055105 | 76 | 137 | 0.0 | 1.0 | 0.00 | 0.00 | 0.00 | 72 | 1010.1 |
| 20260510054600 | 75 | 137 | 0.0 | 3.0 | 0.00 | 0.00 | 0.00 | 71 | 1009.9 |
| 20260510054055 | 75 | 145 | 1.0 | 2.0 | 0.00 | 0.00 | 0.00 | 70 | 1009.8 |
| 20260510053555 | 75 | 125 | 0.0 | 1.0 | 0.00 | 0.00 | 0.00 | 69 | 1010.0 |
| 20260510053052 | 75 | 135 | 0.0 | 0.0 | 0.00 | 0.00 | 0.00 | 69 | 1009.8 |
| 20260510052548 | 76 | 123 | 0.0 | 1.0 | 0.00 | 0.00 | 0.00 | 67 | 1009.5 |
| 20260510052045 | 76 | 136 | 0.0 | 1.0 | 0.00 | 0.00 | 0.00 | 67 | 1009.6 |
| 20260510051540 | 77 | 110 | 0.0 | 2.0 | 0.00 | 0.00 | 0.00 | 66 | 1009.4 |
| 20260510051037 | 77 | 133 | 0.0 | 2.0 | 0.00 | 0.00 | 0.00 | 66 | 1009.5 |
| 20260510050534 | 77 | 121 | 0.0 | 2.0 | 0.00 | 0.00 | 0.00 | 66 | 1009.4 |
| 20260510050031 | 77 | 239 | 1.0 | 5.0 | 0.00 | 0.00 | 0.00 | 66 | 1009.3 |
| 20260510045528 | 77 | 184 | 2.0 | 3.0 | 0.00 | 0.00 | 0.00 | 66 | 1009.2 |
| 20260510045024 | 77 | 158 | 2.0 | 5.0 | 0.00 | 0.00 | 0.00 | 65 | 1009.3 |
| 20260510044521 | 77 | 145 | 0.0 | 5.0 | 0.00 | 0.00 | 0.00 | 65 | 1009.2 |
| 20260510044019 | 78 | 163 | 1.0 | 3.0 | 0.00 | 0.00 | 0.00 | 65 | 1009.3 |
| 20260510043514 | 78 | 152 | 1.0 | 2.0 | 0.00 | 0.00 | 0.00 | 65 | 1009.4 |
| 20260510043010 | 78 | 221 | 1.0 | 2.0 | 0.00 | 0.00 | 0.00 | 65 | 1009.4 |
| 20260510042504 | 78 | 159 | 2.0 | 5.0 | 0.00 | 0.00 | 0.00 | 64 | 1009.5 |
| 20260510041959 | 78 | 154 | 1.0 | 5.0 | 0.00 | 0.00 | 0.00 | 63 | 1009.4 |
| 20260510041456 | 79 | 142 | 1.0 | 2.0 | 0.00 | 0.00 | 0.00 | 64 | 1009.3 |
| 20260510040954 | 79 | 122 | 1.0 | 2.0 | 0.00 | 0.00 | 0.00 | 64 | 1009.5 |
| 20260510040450 | 79 | 165 | 1.0 | 2.0 | 0.00 | 0.00 | 0.00 | 63 | 1009.4 |
| 20260510035946 | 79 | 248 | 2.0 | 3.0 | 0.00 | 0.00 | 0.00 | 63 | 1009.4 |
| 20260510035443 | 79 | 165 | 2.0 | 2.0 | 0.00 | 0.00 | 0.00 | 65 | 1009.7 |
| 20260510034942 | 79 | 171 | 2.0 | 5.0 | 0.00 | 0.00 | 0.00 | 64 | 1009.4 |
| 20260510034442 | 79 | 157 | 1.0 | 3.0 | 0.00 | 0.00 | 0.00 | 67 | 1009.4 |
| 20260510033937 | 79 | 157 | 1.0 | 2.0 | 0.00 | 0.00 | 0.00 | 68 | 1009.4 |
| 20260510033433 | 79 | 132 | 1.0 | 2.0 | 0.00 | 0.00 | 0.00 | 68 | 1009.5 |
| 20260510032931 | 79 | 146 | 1.0 | 1.0 | 0.00 | 0.00 | 0.00 | 68 | 1009.5 |
| 20260510032428 | 79 | 144 | 1.0 | 3.0 | 0.00 | 0.00 | 0.00 | 68 | 1009.5 |
| 20260510031923 | 79 | 143 | 0.0 | 1.0 | 0.00 | 0.00 | 0.00 | 70 | 1009.7 |
| 20260510031418 | 79 | 140 | 0.0 | 1.0 | 0.00 | 0.00 | 0.00 | 69 | 1009.6 |
| 20260510030914 | 80 | 143 | 1.0 | 1.0 | 0.00 | 0.00 | 0.00 | 69 | 1009.4 |
| 20260510030410 | 80 | 185 | 1.0 | 1.0 | 0.00 | 0.00 | 0.00 | 67 | 1009.4 |
| 20260510025908 | 80 | 160 | 1.0 | 3.0 | 0.00 | 0.00 | 0.00 | 66 | 1009.6 |
| 20260510025405 | 80 | 147 | 1.0 | 1.0 | 0.00 | 0.00 | 0.00 | 67 | 1009.5 |
| 20260510024902 | 80 | 143 | 1.0 | 2.0 | 0.00 | 0.00 | 0.00 | 68 | 1009.3 |
| 20260510024358 | 80 | 132 | 1.0 | 1.0 | 0.00 | 0.00 | 0.00 | 67 | 1009.1 |
| 20260510023854 | 80 | 143 | 1.0 | 2.0 | 0.00 | 0.00 | 0.00 | 67 | 1009.2 |
| 20260510023351 | 81 | 156 | 1.0 | 1.0 | 0.00 | 0.00 | 0.00 | 67 | 1009.1 |
| 20260510022848 | 81 | 137 | 1.0 | 2.0 | 0.00 | 0.00 | 0.00 | 67 | 1009.2 |
| 20260510022347 | 81 | 131 | 1.0 | 2.0 | 0.00 | 0.00 | 0.00 | 67 | 1009.1 |
| 20260510021846 | 81 | 142 | 1.0 | 1.0 | 0.00 | 0.00 | 0.00 | 69 | 1009.0 |
| 20260510021344 | 81 | 132 | 0.0 | 1.0 | 0.00 | 0.00 | 0.00 | 67 | 1008.7 |
| 20260510020840 | 81 | 138 | 1.0 | 2.0 | 0.00 | 0.00 | 0.00 | 67 | 1008.8 |
| 20260510020335 | 81 | 167 | 1.0 | 2.0 | 0.00 | 0.00 | 0.00 | 66 | 1008.7 |
| 20260510015831 | 80 | 129 | 0.0 | 0.0 | 0.00 | 0.00 | 0.00 | 67 | 1008.6 |
| 20260510015327 | 80 | 136 | 0.0 | 0.0 | 0.00 | 0.00 | 0.00 | 68 | 1008.6 |
| 20260510014822 | 80 | 130 | 0.0 | 0.0 | 0.00 | 0.00 | 0.00 | 68 | 1008.4 |
| 20260510014320 | 81 | 125 | 0.0 | 0.0 | 0.00 | 0.00 | 0.00 | 66 | 1008.3 |
| 20260510013816 | 82 | 111 | 0.0 | 1.0 | 0.00 | 0.00 | 0.00 | 64 | 1008.3 |
| 20260510013312 | 83 | 135 | 1.0 | 1.0 | 0.00 | 0.00 | 0.00 | 56 | 1008.1 |
| 20260510012807 | 83 | 130 | 0.0 | 0.0 | 0.00 | 0.00 | 0.00 | 56 | 1008.1 |
| 20260510012307 | 83 | 131 | 0.0 | 0.0 | 0.00 | 0.00 | 0.00 | 56 | 1008.0 |
| 20260510011801 | 83 | 128 | 0.0 | 1.0 | 0.00 | 0.00 | 0.00 | 57 | 1008.0 |
| 20260510011257 | 84 | 133 | 0.0 | 1.0 | 0.00 | 0.00 | 0.00 | 56 | 1007.9 |
| 20260510010754 | 84 | 193 | 1.0 | 2.0 | 0.00 | 0.00 | 0.00 | 57 | 1007.8 |
| 20260510010250 | 84 | 129 | 0.0 | 1.0 | 0.00 | 0.00 | 0.00 | 59 | 1007.7 |
| 20260510005747 | 85 | 124 | 0.0 | 1.0 | 0.00 | 0.00 | 0.00 | 58 | 1007.7 |
| 20260510005243 | 85 | 130 | 1.0 | 2.0 | 0.00 | 0.00 | 0.00 | 57 | 1007.7 |
| 20260510004742 | 86 | 128 | 1.0 | 1.0 | 0.00 | 0.00 | 0.00 | 58 | 1007.6 |
| 20260510004239 | 86 | 142 | 0.0 | 1.0 | 0.00 | 0.00 | 0.00 | 57 | 1007.5 |
| 20260510003736 | 87 | 144 | 0.0 | 0.0 | 0.00 | 0.00 | 0.00 | 57 | 1007.7 |
| 20260510003232 | 87 | 130 | 0.0 | 0.0 | 0.00 | 0.00 | 0.00 | 57 | 1007.6 |
| 20260510002731 | 87 | 130 | 0.0 | 0.0 | 0.00 | 0.00 | 0.00 | 58 | 1007.5 |
| 20260510002229 | 88 | 130 | 0.0 | 0.0 | 0.00 | 0.00 | 0.00 | 57 | 1007.5 |
| 20260510001725 | 89 | 131 | 0.0 | 0.0 | 0.00 | 0.00 | 0.00 | 54 | 1007.5 |
| 20260510001224 | 89 | 129 | 0.0 | 1.0 | 0.00 | 0.00 | 0.00 | 53 | 1007.6 |
| 20260510000720 | 89 | 82 | 0.0 | 1.0 | 0.00 | 0.00 | 0.00 | 54 | 1007.6 |
| 20260510000219 | 89 | 136 | 0.0 | 0.0 | 0.00 | 0.00 | 0.00 | 52 | 1007.7 |
| 20260509235714 | 89 | 134 | 0.0 | 2.0 | 0.00 | 0.00 | 0.00 | 51 | 1007.6 |
| 20260509235210 | 89 | 134 | 0.0 | 0.0 | 0.00 | 0.00 | 0.00 | 53 | 1007.5 |
| 20260509234706 | 90 | 134 | 0.0 | 1.0 | 0.00 | 0.00 | 0.00 | 54 | 1007.5 |
| 20260509234204 | 90 | 127 | 0.0 | 1.0 | 0.00 | 0.00 | 0.00 | 54 | 1007.6 |
| 20260509233702 | 89 | 120 | 1.0 | 2.0 | 0.00 | 0.00 | 0.00 | 50 | 1007.7 |
| 20260509233159 | 90 | 122 | 0.0 | 2.0 | 0.00 | 0.00 | 0.00 | 48 | 1007.5 |
| 20260509232655 | 89 | 65 | 1.0 | 2.0 | 0.00 | 0.00 | 0.00 | 50 | 1007.6 |
| 20260509232152 | 90 | 109 | 0.0 | 1.0 | 0.00 | 0.00 | 0.00 | 54 | 1007.4 |
| 20260509231649 | 90 | 109 | 0.0 | 1.0 | 0.00 | 0.00 | 0.00 | 46 | 1007.4 |
| 20260509231146 | 91 | 77 | 2.0 | 2.0 | 0.00 | 0.00 | 0.00 | 42 | 1007.6 |
| 20260509230643 | 90 | 129 | 0.0 | 1.0 | 0.00 | 0.00 | 0.00 | 42 | 1007.6 |
| 20260509230140 | 90 | 126 | 0.0 | 1.0 | 0.00 | 0.00 | 0.00 | 42 | 1007.5 |
| 20260509225636 | 90 | 140 | 0.0 | 1.0 | 0.00 | 0.00 | 0.00 | 44 | 1007.7 |
| 20260509225131 | 90 | 96 | 1.0 | 2.0 | 0.00 | 0.00 | 0.00 | 43 | 1007.5 |
| 20260509224627 | 90 | 128 | 1.0 | 1.0 | 0.00 | 0.00 | 0.00 | 44 | 1007.6 |
| 20260509224124 | 90 | 94 | 3.0 | 3.0 | 0.00 | 0.00 | 0.00 | 42 | 1007.8 |
| 20260509223621 | 90 | 123 | 0.0 | 1.0 | 0.00 | 0.00 | 0.00 | 43 | 1007.6 |
| 20260509223118 | 90 | 141 | 0.0 | 1.0 | 0.00 | 0.00 | 0.00 | 44 | 1007.5 |
| 20260509222614 | 91 | 117 | 0.0 | 1.0 | 0.00 | 0.00 | 0.00 | 44 | 1007.7 |
| 20260509222110 | 91 | 102 | 1.0 | 1.0 | 0.00 | 0.00 | 0.00 | 43 | 1007.6 |
| 20260509221606 | 92 | 129 | 1.0 | 1.0 | 0.00 | 0.00 | 0.00 | 43 | 1007.5 |
| 20260509221102 | 92 | 103 | 0.0 | 0.0 | 0.00 | 0.00 | 0.00 | 41 | 1007.5 |
| 20260509220558 | 90 | 137 | 0.0 | 1.0 | 0.00 | 0.00 | 0.00 | 44 | 1007.5 |
| 20260509220055 | 91 | 121 | 1.0 | 1.0 | 0.00 | 0.00 | 0.00 | 44 | 1007.8 |
| 20260509215550 | 90 | 137 | 0.0 | 2.0 | 0.00 | 0.00 | 0.00 | 44 | 1007.9 |
| 20260509215048 | 90 | 103 | 1.0 | 1.0 | 0.00 | 0.00 | 0.00 | 45 | 1007.7 |
| 20260509214545 | 90 | 114 | 0.0 | 1.0 | 0.00 | 0.00 | 0.00 | 45 | 1007.7 |
| 20260509214042 | 91 | 94 | 2.0 | 2.0 | 0.00 | 0.00 | 0.00 | 44 | 1007.8 |
| 20260509213538 | 90 | 134 | 0.0 | 1.0 | 0.00 | 0.00 | 0.00 | 45 | 1008.2 |
| 20260509213035 | 90 | 140 | 0.0 | 2.0 | 0.00 | 0.00 | 0.00 | 48 | 1008.0 |
| 20260509212532 | 91 | 129 | 0.0 | 1.0 | 0.00 | 0.00 | 0.00 | 47 | 1008.1 |
| 20260509212029 | 90 | 148 | 1.0 | 2.0 | 0.00 | 0.00 | 0.00 | 46 | 1008.3 |
| 20260509211524 | 90 | 134 | 0.0 | 1.0 | 0.00 | 0.00 | 0.00 | 47 | 1008.4 |
| 20260509211021 | 89 | 115 | 0.0 | 2.0 | 0.00 | 0.00 | 0.00 | 46 | 1008.4 |
| 20260509210518 | 90 | 74 | 2.0 | 3.0 | 0.00 | 0.00 | 0.00 | 47 | 1008.4 |
| 20260509210015 | 91 | 127 | 0.0 | 2.0 | 0.00 | 0.00 | 0.00 | 45 | 1008.4 |
| 20260509205509 | 91 | 138 | 0.0 | 1.0 | 0.00 | 0.00 | 0.00 | 48 | 1008.4 |
| 20260509205005 | 91 | 163 | 1.0 | 1.0 | 0.00 | 0.00 | 0.00 | 47 | 1008.6 |
| 20260509204501 | 91 | 148 | 1.0 | 2.0 | 0.00 | 0.00 | 0.00 | 47 | 1008.8 |
| 20260509203957 | 91 | 158 | 0.0 | 3.0 | 0.00 | 0.00 | 0.00 | 47 | 1009.0 |
| 20260509203453 | 91 | 135 | 1.0 | 2.0 | 0.00 | 0.00 | 0.00 | 49 | 1009.0 |
| 20260509202951 | 90 | 165 | 0.0 | 2.0 | 0.00 | 0.00 | 0.00 | 47 | 1009.0 |
| 20260509202447 | 90 | 154 | 1.0 | 2.0 | 0.00 | 0.00 | 0.00 | 50 | 1009.1 |
| 20260509201942 | 90 | 129 | 1.0 | 2.0 | 0.00 | 0.00 | 0.00 | 46 | 1009.3 |
| 20260509201437 | 90 | 161 | 1.0 | 3.0 | 0.00 | 0.00 | 0.00 | 42 | 1009.2 |
| 20260509200935 | 91 | 180 | 1.0 | 2.0 | 0.00 | 0.00 | 0.00 | 46 | 1009.3 |
| 20260509200434 | 90 | 171 | 1.0 | 2.0 | 0.00 | 0.00 | 0.00 | 46 | 1009.4 |
| 20260509195932 | 90 | 137 | 0.0 | 1.0 | 0.00 | 0.00 | 0.00 | 44 | 1009.3 |
| 20260509195427 | 90 | 121 | 1.0 | 2.0 | 0.00 | 0.00 | 0.00 | 44 | 1009.3 |
| 20260509194926 | 89 | 162 | 1.0 | 2.0 | 0.00 | 0.00 | 0.00 | 46 | 1009.4 |
| 20260509194422 | 88 | 132 | 1.0 | 3.0 | 0.00 | 0.00 | 0.00 | 52 | 1009.6 |
| 20260509193920 | 90 | 109 | 1.0 | 2.0 | 0.00 | 0.00 | 0.00 | 45 | 1009.6 |
| 20260509193419 | 89 | 120 | 0.0 | 1.0 | 0.00 | 0.00 | 0.00 | 44 | 1009.7 |
| 20260509192916 | 89 | 291 | 2.0 | 3.0 | 0.00 | 0.00 | 0.00 | 44 | 1009.6 |
| 20260509192412 | 89 | 347 | 3.0 | 6.0 | 0.00 | 0.00 | 0.00 | 45 | 1009.9 |
| 20260509191907 | 89 | 141 | 0.0 | 6.0 | 0.00 | 0.00 | 0.00 | 45 | 1009.6 |
| 20260509191403 | 89 | 261 | 3.0 | 5.0 | 0.00 | 0.00 | 0.00 | 45 | 1009.9 |
| 20260509190859 | 89 | 127 | 0.0 | 2.0 | 0.00 | 0.00 | 0.00 | 47 | 1009.9 |
| 20260509190356 | 88 | 119 | 1.0 | 2.0 | 0.00 | 0.00 | 0.00 | 46 | 1010.0 |
| 20260509185854 | 88 | 51 | 2.0 | 5.0 | 0.00 | 0.00 | 0.00 | 46 | 1009.9 |
| 20260509185350 | 88 | 300 | 4.0 | 7.0 | 0.00 | 0.00 | 0.00 | 46 | 1010.2 |
| 20260509184847 | 88 | 342 | 3.0 | 5.0 | 0.00 | 0.00 | 0.00 | 47 | 1010.1 |
| 20260509184344 | 88 | 307 | 4.0 | 6.0 | 0.00 | 0.00 | 0.00 | 46 | 1010.1 |
| 20260509183841 | 88 | 93 | 0.0 | 1.0 | 0.00 | 0.00 | 0.00 | 47 | 1010.2 |
| 20260509183336 | 88 | 145 | 1.0 | 5.0 | 0.00 | 0.00 | 0.00 | 48 | 1010.1 |
| 20260509182832 | 88 | 180 | 1.0 | 7.0 | 0.00 | 0.00 | 0.00 | 46 | 1010.5 |
| 20260509182329 | 88 | 120 | 0.0 | 2.0 | 0.00 | 0.00 | 0.00 | 47 | 1010.5 |
| 20260509181826 | 88 | 292 | 2.0 | 3.0 | 0.00 | 0.00 | 0.00 | 47 | 1010.3 |
| 20260509181318 | 87 | 29 | 1.0 | 2.0 | 0.00 | 0.00 | 0.00 | 49 | 1010.5 |
| 20260509180816 | 86 | 282 | 5.0 | 7.0 | 0.00 | 0.00 | 0.00 | 49 | 1010.5 |
| 20260509180311 | 87 | 239 | 2.0 | 6.0 | 0.00 | 0.00 | 0.00 | 50 | 1010.6 |
| 20260509175808 | 87 | 198 | 1.0 | 5.0 | 0.00 | 0.00 | 0.00 | 50 | 1010.7 |
| 20260509175259 | 86 | 316 | 4.0 | 5.0 | 0.00 | 0.00 | 0.00 | 50 | 1010.6 |
| 20260509174755 | 86 | 324 | 3.0 | 5.0 | 0.00 | 0.00 | 0.00 | 47 | 1010.6 |
| 20260509174250 | 86 | 43 | 1.0 | 3.0 | 0.00 | 0.00 | 0.00 | 50 | 1010.9 |
| 20260509173747 | 86 | 30 | 5.0 | 6.0 | 0.00 | 0.00 | 0.00 | 49 | 1010.8 |
| 20260509173242 | 86 | 60 | 1.0 | 7.0 | 0.00 | 0.00 | 0.00 | 50 | 1010.8 |
| 20260509172738 | 86 | 305 | 3.0 | 6.0 | 0.00 | 0.00 | 0.00 | 51 | 1010.7 |
| 20260509172236 | 86 | 26 | 6.0 | 7.0 | 0.00 | 0.00 | 0.00 | 50 | 1010.9 |
| 20260509171731 | 86 | 338 | 2.0 | 3.0 | 0.00 | 0.00 | 0.00 | 49 | 1011.0 |
| 20260509171227 | 85 | 346 | 2.0 | 6.0 | 0.00 | 0.00 | 0.00 | 52 | 1011.0 |
| 20260509170724 | 85 | 155 | 3.0 | 7.0 | 0.00 | 0.00 | 0.00 | 51 | 1011.2 |
| 20260509170220 | 85 | 275 | 2.0 | 7.0 | 0.00 | 0.00 | 0.00 | 53 | 1011.4 |
| 20260509165719 | 84 | 346 | 2.0 | 7.0 | 0.00 | 0.00 | 0.00 | 51 | 1011.3 |
| 20260509165214 | 85 | 134 | 1.0 | 5.0 | 0.00 | 0.00 | 0.00 | 52 | 1011.4 |
| 20260509164710 | 84 | 356 | 4.0 | 7.0 | 0.00 | 0.00 | 0.00 | 51 | 1011.4 |
| 20260509164206 | 84 | 13 | 2.0 | 3.0 | 0.00 | 0.00 | 0.00 | 53 | 1011.3 |
| 20260509163704 | 84 | 252 | 2.0 | 8.0 | 0.00 | 0.00 | 0.00 | 54 | 1011.4 |
| 20260509163200 | 84 | 106 | 1.0 | 8.0 | 0.00 | 0.00 | 0.00 | 56 | 1011.2 |
| 20260509162658 | 83 | 352 | 3.0 | 7.0 | 0.00 | 0.00 | 0.00 | 56 | 1011.4 |
| 20260509162153 | 83 | 290 | 6.0 | 7.0 | 0.00 | 0.00 | 0.00 | 56 | 1011.4 |
| 20260509161649 | 83 | 3 | 4.0 | 6.0 | 0.00 | 0.00 | 0.00 | 55 | 1011.4 |
| 20260509161144 | 82 | 314 | 3.0 | 9.0 | 0.00 | 0.00 | 0.00 | 57 | 1011.4 |
| 20260509160640 | 82 | 13 | 4.0 | 7.0 | 0.00 | 0.00 | 0.00 | 57 | 1011.3 |
| 20260509160136 | 82 | 287 | 3.0 | 8.0 | 0.00 | 0.00 | 0.00 | 57 | 1011.6 |
| 20260509155632 | 81 | 340 | 4.0 | 7.0 | 0.00 | 0.00 | 0.00 | 57 | 1011.6 |
| 20260509155129 | 82 | 328 | 5.0 | 6.0 | 0.00 | 0.00 | 0.00 | 56 | 1011.6 |
| 20260509154624 | 81 | 337 | 3.0 | 6.0 | 0.00 | 0.00 | 0.00 | 56 | 1011.5 |
| 20260509154122 | 82 | 328 | 2.0 | 6.0 | 0.00 | 0.00 | 0.00 | 58 | 1011.4 |
| 20260509153619 | 80 | 288 | 3.0 | 7.0 | 0.00 | 0.00 | 0.00 | 59 | 1011.4 |
| 20260509153115 | 80 | 270 | 3.0 | 7.0 | 0.00 | 0.00 | 0.00 | 58 | 1011.3 |